Regional Weather Roundup
Issued by NWS Kansas City/Pleasant Hill, MO

Home | Current Version | Previous Version | Text Only | Print | Product List | Glossary On
Versions: 1 2 3 4 5 6 7 8 9 10 11 12 13 14 15 16 17 18 19 20 21 22 23 24 25 26 27 28 29 30 31 32 33 34 35 36 37 38 39 40 41 42 43 44 45 46 47 48 49 50
787
ASUS43 KEAX 231210
RWREAX

WEATHER ROUNDUP FOR EASTERN KANSAS AND NORTHWEST MISSOURI
NATIONAL WEATHER SERVICE KANSAS CITY/PLEASANT HILL MO
600 AM CST THU FEB 23 2017

KSZ040-057-103>105-MOZ028-029-037-043-231300-
...KANSAS CITY METROPOLITAN AREA...

CITY           SKY/WX    TMP DP  RH WIND       PRES   REMARKS
K.C. INTL      CLOUDY    49  41  74 NE7       29.74R
6HR MIN TEMP:  49; 6HR MAX TEMP:  55;

K.C. DOWNTOWN  CLOUDY    53  41  63 NE8       29.73R
6HR MIN TEMP:  48; 6HR MAX TEMP:  55;

LEES SUMMIT    CLOUDY    51  42  71 NE9       29.72R
6HR MIN TEMP:  51; 6HR MAX TEMP:  59;

OLATHE - IXD   MOCLDY    52  41  66 E15       29.69S
6HR MIN TEMP:  45; 6HR MAX TEMP:  56;

OLATHE - OJC   CLOUDY    51  42  71 NE15      29.71R
6HR MIN TEMP:  51; 6HR MAX TEMP:  58;

LAWRENCE       CLOUDY    52  40  63 NE13      29.69F

$$

MOZ001>008-011>017-020>025-030>033-038>040-044>046-053-054-231300-
...NORTHERN AND CENTRAL MISSOURI...

CITY           SKY/WX    TMP DP  RH WIND       PRES   REMARKS
ST. JOSEPH     CLOUDY    48  40  73 NE8       29.75R
6HR MIN TEMP:  48; 6HR MAX TEMP:  53;

WARRENSBURG    CLOUDY    50  41  71 NE8       29.70R
WHITEMAN AFB   MOCLDY    52  47  82 E10       29.67R
6HR MIN TEMP:  45; 6HR MAX TEMP:  54;

CLINTON        CLOUDY    48  48 100 CALM      29.68R
SEDALIA        CLOUDY    50  48  93 E5        29.70R
6HR MIN TEMP:  48; 6HR MAX TEMP:  60;

WARSAW         NOT AVBL
CHILLICOTHE      N/A     46  41  82 N3        29.75R
6HR MIN TEMP:  45; 6HR MAX TEMP:  55;

KIRKSVILLE     MOCLDY    42  38  85 N10       29.74R
6HR MIN TEMP:  40; 6HR MAX TEMP:  53;


$$

MOZ041-047>049-056>058-063>065-088>090-097-231300-
...EASTERN AND SOUTHERN MISSOURI...

CITY           SKY/WX    TMP DP  RH WIND       PRES   REMARKS
ST. LOUIS INTL MOCLDY    51  49  92 CALM      29.72F
6HR MIN TEMP:  51; 6HR MAX TEMP:  61;

SPIRIT OF STL  FOG       46  46 100 CALM      29.71S VSB 1/4
COLUMBIA       CLOUDY    52  52 100 NE9       29.69F FOG
JEFFERSON CITY FOG       44  44 100 SE3       29.70S VSB 1/2
ROLLA          FOG       51  51 100 CALM      29.70R VSB 1/4
OSAGE BEACH    LGT RAIN  53  53 100 E3        29.69F VSB 1/4
SPRINGFIELD    FOG       53  53 100 SE16      29.67F VSB 1
BRANSON        LGT RAIN  50  50 100 SE6       29.72S VSB<1/4
JOPLIN         CLEAR     56  53  90 S8        29.64S
WEST PLAINS    FOG       52  52 100 S5        29.75S VSB 1/4

$$

IAZ060-094-KSZ022-034>040-054-083-096-NEZ052-066-093-231300-
...KANSAS...SOUTHEAST NEBRASKA AND IOWA...

CITY           SKY/WX    TMP DP  RH WIND       PRES   REMARKS
TOPEKA         CLOUDY    52  39  61 NE10      29.70F
6HR MIN TEMP:  50; 6HR MAX TEMP:  52;

MANHATTAN      CLOUDY    50  39  66 NE14      29.70S
EMPORIA        PTCLDY    51  39  63 NE15      29.63F
CHANUTE        PTCLDY    51  48  89 E7        29.61F
WICHITA        PTCLDY    49  42  77 NE12      29.58S
OMAHA          CLOUDY    38  33  82 N15       29.81R WCI  29
LINCOLN        CLOUDY    40  35  83 NE17      29.80R WCI  31
FALLS CITY     MOCLDY    43  38  82 N7        29.75S
LAMONI         CLOUDY    39  37  92 NE15G25   29.76R WCI  31
DES MOINES     CLOUDY    40  36  86 NE16      29.80F WCI  31

$$





USA.gov is the U.S. government's official web portal to all federal, state and local government web resources and services.